sat.trackr.live / text

‹ back to catalog

STARLINK-36737

NORAD 67740 · 2026-026V

PAYLOAD ACTIVE UNKNOWN

§ Identity

Operator
Country
US
Launch date
2026-02-11
Launch site
AFWTR
Launch vehicle
Mass (kg)
RCS (m²)

Purposes: comms

External: N2YO · Heavens-Above · Gunter

§ Orbital elements

Epoch: 2026-05-25T03:06:17.063424Z

Period
93.91 min
Inclination
97.2844°
Eccentricity
0.0001190
Mean motion
15.33452003 rev/d
Perigee alt
464.7 km
Apogee alt
466.3 km
Semi-major
6,843.7 km
B*
3.7503e-4
RAAN
198.7032°
Arg perigee
93.1156°
Mean anomaly
267.0223°
Rev number
1,584

§ Raw data

STARLINK-367371 67740U 26026V   26145.12936416  .00012054  00000+0  37503-3 0  99922 67740  97.2844 198.7032 0001190  93.1156 267.0223 15.33452003 15842

JSON: /api/v1/satellites/67740 · /tle

For live sub-satellite position, see the globe view (requires WebGL).

§ Visibility from observer

Set your observer location to see the next 7 days of passes ≥ 10°. The values pass through the URL so the page stays shareable.

No JS? Fill the form by hand. The geolocation button needs JavaScript.